CW3007 Weather Reports


Display with metric or nautical units.
time (UTC)temp
F
wind
direction
speed
MPH
gust
MPH
rain 1hr
in
rain 24hr
in
rain mn
in
humidity
%
barometer
mb
20260902203032 102 191 4.0 11.0 0.00 0.00 0.00 34 1009.5
20260902202032 102 224 9.0 10.0 0.00 0.00 0.00 34 1009.6
20260902201032 101 235 5.0 7.0 0.00 0.00 0.00 37 1009.9
20260902195032 101 178 6.0 8.0 0.00 0.00 0.00 38 1010.2
20260902194032 101 202 10.0 10.0 0.00 0.00 0.00 36 1010.4
20260902193032 100 185 6.0 9.0 0.00 0.00 0.00 38 1010.6
20260902192032 101 178 1.0 9.0 0.00 0.00 0.00 37 1010.8
20260902191032 101 180 2.0 10.0 0.00 0.00 0.00 37 1011.0
20260902190032 100 292 1.0 8.0 0.00 0.00 0.00 39 1011.1
20260902185032 100 57 0.0 5.0 0.00 0.00 0.00 38 1011.3
20260902183032 99 250 3.0 6.0 0.00 0.00 0.00 41 1011.6
20260902182032 98 159 2.0 8.0 0.00 0.00 0.00 40 1011.8
20260902181032 97 232 4.0 9.0 0.00 0.00 0.00 41 1012.0
20260902180032 97 235 2.0 11.0 0.00 0.00 0.00 42 1012.3
20260902175032 98 211 3.0 9.0 0.00 0.00 0.00 42 1012.4
20260902173032 98 245 3.0 8.0 0.00 0.00 0.00 42 1012.7
20260902172032 97 184 4.0 8.0 0.00 0.00 0.00 43 1013.0
20260902171032 97 194 6.0 9.0 0.00 0.00 0.00 42 1013.0
20260902170032 96 194 4.0 12.0 0.00 0.00 0.00 43 1013.2
20260902165032 96 217 3.0 12.0 0.00 0.00 0.00 44 1013.3
20260902164032 96 209 7.0 9.0 0.00 0.00 0.00 45 1013.4
20260902163031 96 225 3.0 5.0 0.00 0.00 0.00 45 1013.5
20260902162031 95 257 0.0 8.0 0.00 0.00 0.00 46 1013.5
20260902161032 94 331 2.0 9.0 0.00 0.00 0.00 49 1013.5
20260902160032 93 236 4.0 9.0 0.00 0.00 0.00 51 1013.5
20260902155031 92 195 2.0 8.0 0.00 0.00 0.00 51 1013.5
20260902154031 91 242 0.0 8.0 0.00 0.00 0.00 53 1013.6
20260902153032 91 211 3.0 6.0 0.00 0.00 0.00 54 1013.6
20260902152031 91 207 3.0 8.0 0.00 0.00 0.00 54 1013.7
20260902151031 90 283 0.0 4.0 0.00 0.00 0.00 56 1013.7
20260902150031 89 245 0.0 4.0 0.00 0.00 0.00 56 1013.7
20260902145032 89 227 0.0 6.0 0.00 0.00 0.00 58 1013.7
20260902144031 88 241 0.0 8.0 0.00 0.00 0.00 59 1013.8
20260902143032 87 223 4.0 7.0 0.00 0.00 0.00 60 1013.8
20260902141031 86 257 3.0 7.0 0.00 0.00 0.00 62 1013.8
20260902135032 85 249 0.0 6.0 0.00 0.00 0.00 65 1013.6
20260902134032 84 227 1.0 7.0 0.00 0.00 0.00 67 1013.5
20260902133032 82 228 1.0 5.0 0.00 0.00 0.00 70 1013.4
20260902131032 78 235 0.0 0.0 0.00 0.00 0.00 79 1013.3
20260902130032 76 235 0.0 0.0 0.00 0.00 0.00 81 1013.3
20260902125031 76 235 0.0 0.0 0.00 0.00 0.00 80 1013.1
20260902124032 75 235 0.0 0.0 0.00 0.00 0.00 80 1013.0
20260902123031 75 338 0.0 0.0 0.00 0.00 0.00 79 1012.9
20260902122032 76 338 0.0 0.0 0.00 0.00 0.00 79 1012.9
20260902121031 76 338 0.0 0.0 0.00 0.00 0.00 78 1012.8
20260902120032 76 338 0.0 0.0 0.00 0.00 0.00 77 1012.8
20260902115031 77 338 0.0 0.0 0.00 0.00 0.00 77 1012.8
20260902114031 77 338 0.0 0.0 0.00 0.00 0.00 76 1012.8
20260902113031 78 238 0.0 0.0 0.00 0.00 0.00 76 1012.7
20260902112031 78 238 0.0 0.0 0.00 0.00 0.00 76 1012.7
20260902111031 78 238 0.0 0.0 0.00 0.00 0.00 76 1012.7
20260902110031 78 238 0.0 0.0 0.00 0.00 0.00 76 1012.6
20260902105031 78 238 0.0 0.0 0.00 0.00 0.00 77 1012.4
20260902104031 78 238 0.0 0.0 0.00 0.00 0.00 76 1012.5
20260902103032 78 238 0.0 0.0 0.00 0.00 0.00 75 1012.4
20260902101031 79 238 0.0 0.0 0.00 0.00 0.00 75 1012.4
20260902100031 79 238 0.0 0.0 0.00 0.00 0.00 75 1012.4
20260902095031 78 245 0.0 0.0 0.00 0.00 0.00 76 1012.5
20260902094031 78 112 0.0 0.0 0.00 0.00 0.00 75 1012.5
20260902092031 79 112 0.0 0.0 0.00 0.00 0.00 74 1012.7
20260902090031 80 112 0.0 0.0 0.00 0.00 0.00 73 1012.7
20260902085031 80 112 0.0 0.0 0.00 0.00 0.00 72 1012.7
20260902084031 80 112 0.0 0.0 0.00 0.00 0.00 72 1012.7
20260902083031 80 167 0.0 0.0 0.00 0.00 0.00 72 1012.7
20260902082031 80 174 0.0 3.0 0.00 0.00 0.00 72 1012.8
20260902081031 80 138 0.0 4.0 0.00 0.00 0.00 71 1012.8
20260902080031 81 110 1.0 4.0 0.00 0.00 0.00 71 1012.9
20260902075031 81 125 3.0 4.0 0.00 0.00 0.00 71 1012.9
20260902074031 81 126 2.0 3.0 0.00 0.00 0.00 70 1013.1
20260902073031 81 119 2.0 4.0 0.00 0.00 0.00 70 1013.2
20260902072031 81 111 3.0 6.0 0.00 0.00 0.00 70 1013.2
20260902071031 81 99 0.0 2.0 0.00 0.00 0.00 70 1013.2
20260902070031 81 114 0.0 1.0 0.00 0.00 0.00 69 1013.1
20260902065031 81 136 0.0 0.0 0.00 0.00 0.00 68 1013.1
20260902064031 81 107 0.0 0.0 0.00 0.00 0.00 67 1013.2
20260902062031 82 107 0.0 0.0 0.00 0.00 0.00 66 1013.2
20260902061031 82 107 0.0 2.0 0.00 0.00 0.00 66 1013.2
20260902060031 83 96 1.0 3.0 0.00 0.00 0.00 65 1013.3
20260902055031 83 113 1.0 2.0 0.00 0.00 0.00 64 1013.3
20260902053031 84 117 0.0 2.0 0.00 0.00 0.00 63 1012.9
20260902052031 84 130 0.0 2.0 0.00 0.00 0.00 62 1012.9
20260902051031 84 108 2.0 3.0 0.00 0.00 0.00 61 1012.9
20260902050031 85 119 0.0 4.0 0.00 0.00 0.00 60 1013.0
20260902045031 85 89 2.0 4.0 0.00 0.00 0.00 60 1013.0
20260902044031 85 103 1.0 4.0 0.00 0.00 0.00 59 1013.1
20260902043031 85 138 0.0 2.0 0.00 0.00 0.00 58 1013.1
20260902042031 86 92 0.0 3.0 0.00 0.00 0.00 58 1013.1
20260902041031 86 92 2.0 6.0 0.00 0.00 0.00 58 1013.1
20260902040031 87 76 2.0 4.0 0.00 0.00 0.00 58 1012.9
20260902035031 87 132 0.0 1.0 0.00 0.00 0.00 57 1012.7
20260902034031 88 132 0.0 2.0 0.00 0.00 0.00 56 1012.6
20260902033031 88 142 0.0 2.0 0.00 0.00 0.00 55 1012.5
20260902032031 89 163 0.0 2.0 0.00 0.00 0.00 55 1012.4
20260902031031 89 159 1.0 5.0 0.00 0.00 0.00 54 1012.2
20260902030031 89 140 3.0 4.0 0.00 0.00 0.00 54 1012.0
20260902025031 89 130 3.0 4.0 0.00 0.00 0.00 53 1011.9
20260902024031 89 128 2.0 6.0 0.00 0.00 0.00 53 1011.7
20260902023032 90 130 2.0 4.0 0.00 0.00 0.00 53 1011.4
20260902022031 90 118 0.0 3.0 0.00 0.00 0.00 52 1011.3
20260902021031 91 140 2.0 3.0 0.00 0.00 0.00 51 1011.2
20260902020031 91 148 0.0 4.0 0.00 0.00 0.00 50 1011.1
20260902015031 92 130 4.0 7.0 0.00 0.00 0.00 50 1010.9
20260902014031 92 126 2.0 8.0 0.00 0.00 0.00 49 1010.7
20260902013031 92 88 1.0 9.0 0.00 0.00 0.00 49 1010.6
20260902012031 93 96 4.0 10.0 0.00 0.00 0.00 48 1010.6
20260902010031 94 83 4.0 9.0 0.00 0.00 0.00 44 1010.5
20260902005031 95 61 2.0 9.0 0.00 0.00 0.00 43 1010.5
20260902004031 95 86 7.0 10.0 0.00 0.00 0.00 43 1010.7
20260902003031 96 87 1.0 8.0 0.00 0.00 0.00 42 1010.7
20260902002031 96 66 10.0 11.0 0.00 0.00 0.00 41 1010.6
20260902001031 96 104 6.0 11.0 0.00 0.00 0.00 41 1010.7
20260901234031 98 92 7.0 11.0 0.00 0.00 0.00 41 1010.6
20260901233031 98 51 5.0 10.0 0.00 0.00 0.00 40 1010.5
20260901232031 98 71 5.0 11.0 0.00 0.00 0.00 39 1010.5
20260901231031 98 47 5.0 11.0 0.00 0.00 0.00 40 1010.5
20260901230030 97 135 4.0 10.0 0.00 0.00 0.00 41 1010.6
20260901225031 97 79 2.0 6.0 0.00 0.00 0.00 40 1010.7
20260901224031 97 46 2.0 7.0 0.00 0.00 0.00 41 1010.7
20260901223030 98 89 3.0 13.0 0.00 0.00 0.00 40 1010.7
20260901222030 99 340 4.0 10.0 0.00 0.00 0.00 39 1010.6
20260901221031 99 111 8.0 12.0 0.00 0.00 0.00 39 1010.7
20260901220030 98 39 3.0 13.0 0.00 0.00 0.00 41 1010.8
20260901215030 98 92 4.0 13.0 0.00 0.00 0.00 40 1010.7
20260901214030 99 84 11.0 11.0 0.00 0.00 0.00 38 1010.7
20260901213031 99 67 6.0 8.0 0.00 0.00 0.00 38 1010.7
20260901212031 98 84 7.0 11.0 0.00 0.00 0.00 39 1010.8
20260901211030 98 91 3.0 11.0 0.00 0.00 0.00 41 1011.0
20260901210031 99 16 9.0 12.0 0.00 0.00 0.00 40 1011.1
20260901205030 98 140 4.0 11.0 0.00 0.00 0.00 40 1011.3
20260901204030 98 61 3.0 13.0 0.00 0.00 0.00 41 1011.4